Regional Weather Roundup
Issued by NWS Burlington, VT

Home | Current Version | Previous Version | Text Only | Print | Product List | Glossary On
Versions: 1 2 3 4 5 6 7 8 9 10 11 12 13 14 15 16 17 18 19 20 21 22 23 24 25 26 27 28 29 30 31 32 33 34 35 36 37 38 39 40 41 42 43 44 45 46 47 48 49 50
000
ASUS41 KBTV 260910
RWRBTV
VERMONT REGIONAL WEATHER ROUNDUP
NATIONAL WEATHER SERVICE BURLINGTON VT
500 AM EDT WED APR 26 2017

NOTE: "FAIR" INDICATES FEW OR NO CLOUDS BELOW 12,000 FEET WITH NO
SIGNIFICANT WEATHER AND/OR OBSTRUCTIONS TO VISIBILITY.

* THESE REPORTS ARE NOT UNDER NWS QUALITY CONTROL AND/OR DO NOT
  REPORT WEATHER SUCH AS PRECIPITATION AND FOG.

VTZ001>019-261000-
_____VERMONT_____


CITY           SKY/WX    TMP DP  RH WIND       PRES   REMARKS
BURLINGTON     LGT RAIN  50  48  93 CALM      29.94F
MONTPELIER     CLOUDY    45  45 100 CALM      30.02S FOG
MORRISVILLE    CLOUDY    46  45  96 CALM      29.99F
ST. JOHNSBURY*   N/A     48  45  89 MISG      29.98F
LYNDONVILLE*   DRIZZLE   46  45  96 CALM      30.00F
MIDDLEBURY*    CLOUDY    51  44  77 S3        29.93F
RUTLAND*       CLOUDY    48  44  86 S9        29.93F
SPRINGFIELD    CLOUDY    47  44  90 CALM      29.97F
HIGHGATE*      CLOUDY    47  47  99 CALM      29.94F
NEWPORT*       RAIN      45  45  99 CALM      29.99F
BENNINGTON     CLOUDY    54  46  74 VRB7      29.87F
SUTTON*          N/A     45 N/A N/A MISG        N/A

_____LAKE CHAMPLAIN_____


CITY           SKY/WX    TMP DP  RH WIND       PRES   REMARKS
BURTON ISLAND*   N/A     48  48 100 E2          N/A
COLCHESTER RF*   N/A     48  48 100 SE10        N/A

$$

NYZ007-026>031-035-052-083-087-261000-
_____NORTHERN NEW YORK_____


CITY           SKY/WX    TMP DP  RH WIND       PRES   REMARKS
PLATTSBURGH    LGT RAIN  47  46  97 SE7       29.93F
SARANAC LAKE   LGT RAIN  48  48 100 E7        29.87F
MASSENA        LGT RAIN  50  49  96 NE7       29.91F
OGDENSBURG*    RAIN      49  48  98 NE3       29.89S
POTSDAM*       CLOUDY    48  48 100 E3        29.90S FOG
WATERTOWN      CLOUDY    51  50  96 NE6       29.86F
FT DRUM        CLOUDY    50  48  93 NE7       29.86S
ALBANY         DRIZZLE   50  48  93 N5        29.89S
GLENS FALLS    CLOUDY    50  46  86 N7        29.90F

$$
NHZ002-005-011-261000-
_____NEW HAMPSHIRE_____


CITY           SKY/WX    TMP DP  RH WIND       PRES   REMARKS
LEBANON        CLOUDY    48  46  93 N5        29.97F
KEENE          LGT RAIN  47  45  93 N12       29.92F
MT WASHINGTON  RAIN      43  43 100 S51         N/A  VSB 1/16WCI  30
PLYMOUTH       DRIZZLE   45  44  96 CALM      30.01F
WHITEFIELD     LGT RAIN  47  43  86 CALM      29.99F

$$

_____REGIONAL QUEBEC LOCATIONS_____


CITY           SKY/WX    TMP DP  RH WIND       PRES   REMARKS
MONTREAL       LGT RAIN  48  46  93 NE10      29.94F
QUEBEC CITY    LGT RAIN  39  39 100 NE10      30.06F FOG
SHERBROOKE     LGT RAIN  46  46 100 NE3       29.99F

_____REGIONAL ONTARIO LOCATIONS_____


CITY           SKY/WX    TMP DP  RH WIND       PRES   REMARKS
OTTAWA         CLOUDY    48  48 100 E8        29.90F FOG

______KEY______
VSB  - VISIBILITY IN MILES
WCI  - WIND CHILL INDEX
HX   - HEAT INDEX
$$
NNNN



USA.gov is the U.S. government's official web portal to all federal, state and local government web resources and services.